DW6561 Weather Reports


Display with metric or nautical units.
time (UTC)temp
F
wind
direction
speed
MPH
gust
MPH
rain 1hr
in
rain 24hr
in
rain mn
in
humidity
%
barometer
mb
20260903171503 63 236 0.0 8.0 0.00 0.00 0.00 53 1011.7
20260903170003 61 156 3.0 12.0 0.00 0.00 0.00 55 1011.7
20260903164503 60 160 3.0 11.0 0.00 0.00 0.00 60 1011.6
20260903163004 60 148 4.0 10.0 0.00 0.00 0.00 61 1011.5
20260903161506 59 196 5.0 12.0 0.00 0.00 0.00 60 1011.7
20260903160005 59 190 6.0 13.0 0.00 0.00 0.00 60 1011.4
20260903154503 58 210 4.0 10.0 0.00 0.00 0.00 63 1011.3
20260903153003 58 189 5.0 12.0 0.00 0.00 0.00 66 1011.3
20260903151509 57 146 5.0 12.0 0.00 0.00 0.00 70 1011.3
20260903150014 56 126 5.0 12.0 0.00 0.00 0.00 72 1011.3
20260903144515 55 152 6.0 15.0 0.00 0.00 0.00 77 1011.4
20260903143011 54 169 5.0 11.0 0.00 0.00 0.00 80 1011.3
20260903141506 53 216 4.0 11.0 0.00 0.00 0.00 84 1011.2
20260903140010 52 232 4.0 12.0 0.00 0.00 0.00 85 1011.2
20260903134510 52 172 5.0 10.0 0.00 0.00 0.00 85 1011.2
20260903133015 52 194 4.0 11.0 0.00 0.00 0.00 85 1011.0
20260903131518 52 194 5.0 14.0 0.00 0.00 0.00 85 1011.0
20260903130012 53 209 5.0 13.0 0.00 0.00 0.00 86 1010.9
20260903124506 53 135 4.0 11.0 0.00 0.00 0.00 87 1010.7
20260903123008 53 111 5.0 11.0 0.00 0.00 0.00 87 1010.8
20260903121526 53 152 4.0 10.0 0.00 0.00 0.00 86 1010.8
20260903120038 54 193 4.0 11.0 0.00 0.00 0.00 86 1010.8
20260903114521 54 165 3.0 9.0 0.00 0.00 0.00 85 1010.4
20260903113012 55 162 3.0 8.0 0.00 0.00 0.00 84 1010.5
20260903111517 55 165 3.0 9.0 0.00 0.00 0.00 84 1010.3
20260903110011 56 184 6.0 11.0 0.00 0.00 0.00 85 1010.0
20260903104529 56 157 4.0 10.0 0.00 0.00 0.00 85 1010.0
20260903103031 56 163 3.0 9.0 0.00 0.00 0.00 86 1010.1
20260903101515 56 163 3.0 9.0 0.00 0.00 0.00 85 1010.1
20260903100003 56 192 4.0 10.0 0.00 0.00 0.00 85 1010.0
20260903094503 56 188 3.0 11.0 0.00 0.00 0.00 84 1009.9
20260903093002 57 63 3.0 11.0 0.00 0.00 0.00 84 1010.0
20260903091502 57 175 5.0 12.0 0.00 0.00 0.00 83 1009.8
20260903090003 57 168 4.0 11.0 0.00 0.00 0.00 82 1009.5
20260903084504 57 166 5.0 11.0 0.00 0.00 0.00 82 1009.3
20260903083005 57 177 4.0 11.0 0.00 0.00 0.00 81 1009.4
20260903081503 57 223 5.0 12.0 0.00 0.00 0.00 83 1009.2
20260903080003 57 183 3.0 10.0 0.00 0.00 0.00 84 1009.0
20260903074506 56 170 5.0 12.0 0.00 0.00 0.00 84 1009.0
20260903073004 56 275 5.0 10.0 0.00 0.00 0.00 85 1009.0
20260903071508 56 175 5.0 12.0 0.00 0.00 0.00 84 1009.1
20260903070014 57 161 5.0 12.0 0.00 0.00 0.00 83 1008.9
20260903064503 57 260 6.0 14.0 0.00 0.00 0.00 83 1008.7
20260903063005 57 194 6.0 17.0 0.00 0.00 0.00 82 1008.5
20260903061504 57 219 6.0 15.0 0.00 0.00 0.00 81 1008.6
20260903060013 58 134 8.0 16.0 0.00 0.00 0.00 78 1008.6
20260903054518 58 123 5.0 14.0 0.00 0.00 0.00 79 1008.7
20260903053003 59 163 6.0 15.0 0.00 0.00 0.00 80 1008.7
20260903051506 59 59 6.0 15.0 0.00 0.00 0.00 78 1008.7
20260903050004 60 196 5.0 17.0 0.00 0.00 0.00 76 1008.8
20260903044504 60 181 7.0 12.0 0.00 0.00 0.00 76 1008.6
20260903043022 60 153 5.0 11.0 0.00 0.00 0.00 78 1008.5
20260903041505 60 126 6.0 15.0 0.00 0.00 0.00 78 1008.5
20260903040004 60 206 5.0 13.0 0.00 0.00 0.00 78 1008.4
20260903034510 61 212 4.0 9.0 0.00 0.00 0.00 76 1008.5
20260903033014 61 175 4.0 12.0 0.00 0.00 0.00 75 1008.4
20260903031527 61 230 4.0 12.0 0.00 0.00 0.00 74 1008.4
20260903030009 61 196 5.0 10.0 0.00 0.00 0.00 73 1008.2
20260903024510 61 188 5.0 9.0 0.00 0.00 0.00 75 1008.0
20260903023015 62 130 3.0 10.0 0.00 0.00 0.00 72 1007.9
20260903021516 63 225 2.0 8.0 0.00 0.00 0.00 67 1008.2
20260903020029 64 177 3.0 12.0 0.00 0.00 0.00 64 1008.2
20260903014536 64 157 3.0 11.0 0.00 0.00 0.00 62 1008.0
20260903013013 64 256 2.0 12.0 0.00 0.00 0.00 61 1008.0
20260903011520 64 205 5.0 13.0 0.00 0.00 0.00 60 1007.8
20260903010029 65 225 4.0 12.0 0.00 0.00 0.00 58 1007.4
20260903004506 65 238 2.0 17.0 0.00 0.00 0.00 57 1007.4
20260903003003 65 190 2.0 11.0 0.00 0.00 0.00 58 1007.4
20260903001504 65 230 0.0 11.0 0.00 0.00 0.00 60 1007.5
20260903000003 66 292 4.0 15.0 0.00 0.00 0.00 55 1007.4
20260902234504 67 134 2.0 14.0 0.00 0.00 0.00 51 1007.4
20260902233004 68 202 2.0 10.0 0.00 0.00 0.00 50 1007.4
20260902231503 68 224 2.0 7.0 0.00 0.00 0.00 53 1007.4
20260902230003 66 186 0.0 6.0 0.00 0.00 0.00 59 1007.4
20260902224504 66 188 2.0 10.0 0.00 0.00 0.00 61 1007.5
20260902223007 70 184 2.0 14.0 0.00 0.00 0.00 55 1007.3
20260902221508 74 187 0.0 4.0 0.00 0.00 0.00 42 1006.8
20260902220006 74 99 0.0 1.0 0.00 0.00 0.00 45 1006.7
20260902214509 75 99 0.0 2.0 0.00 0.00 0.00 43 1006.8
20260902213006 75 80 0.0 1.0 0.00 0.00 0.00 44 1006.8
20260902211507 76 102 0.0 3.0 0.00 0.00 0.00 42 1006.7
20260902210008 76 124 2.0 9.0 0.00 0.00 0.00 41 1006.7
20260902204510 76 126 0.0 9.0 0.00 0.00 0.00 40 1006.9
20260902203007 74 163 0.0 0.0 0.00 0.00 0.00 42 1007.0
20260902201508 74 191 0.0 8.0 0.00 0.00 0.00 43 1007.3
20260902200010 74 223 0.0 6.0 0.00 0.00 0.00 39 1007.5
20260902194524 75 178 0.0 8.0 0.00 0.00 0.00 41 1007.8
20260902193014 74 132 1.0 7.0 0.00 0.00 0.00 42 1008.0
20260902191512 74 186 0.0 11.0 0.00 0.00 0.00 42 1008.2
20260902190013 73 253 2.0 9.0 0.00 0.00 0.00 42 1008.4
20260902184514 73 165 1.0 10.0 0.00 0.00 0.00 43 1008.5
20260902183011 72 158 4.0 10.0 0.00 0.00 0.00 43 1008.7
20260902181516 71 130 4.0 10.0 0.00 0.00 0.00 44 1008.7
20260902180014 68 157 0.0 7.0 0.00 0.00 0.00 50 1008.8
20260902174514 67 172 3.0 10.0 0.00 0.00 0.00 50 1008.9
20260902173024 67 162 3.0 14.0 0.00 0.00 0.00 50 1008.9